Terminal Aerodrome Forecast
Issued by NWS Boston, MA

Home | Current Version | Previous Version | Text Only | Print | Product List | Glossary On
Versions: 1 2 3 4 5 6 7 8 9 10 11 12 13 14 15 16 17 18 19 20 21 22 23 24
000
FTUS41 KBOX 171722
TAFBDL
TAF
KBDL 171722Z 1718/1824 06007KT P6SM SCT250
     FM180500 02004KT P6SM FEW200
     FM180900 VRB03KT P6SM BKN015
     FM181300 VRB03KT P6SM SCT025
     FM182000 16007KT P6SM SCT200=

USA.gov is the U.S. government's official web portal to all federal, state and local government web resources and services.